Location: Karwodrza
(49.9217°N, 21.0454°E)
Time: 23:15:12
(UTC+01:00)

ISS - Pass Details

Date: 28 January 2019
Orbit: 403 x 411 km, 51.6° (Epoch: 16 February)

Event Time Altitude Azimuth Distance (km) Brightness Sun altitude
Rises 17:32:08 0° 244° (WSW) 2,328 1.9 -11.2°
Reaches altitude 10° 17:34:12 10° 242° (WSW) 1,471 0.4 -11.5°
Maximum altitude 17:37:29 70° 159° (SSE) 440 -3.7 -12.0°
Enters shadow 17:39:29 22° 78° (ENE) 963 -2.6 -12.3°
